Location: Cisewo
(53.3833°N, 14.9000°E)
Time: 12:53:35
(UTC+00:00)

Cosmos 841 Rocket - Pass Details

Date: 18 April 2021
Orbit: 747 x 772 km, 74.0° (Epoch: 16 May)

Event Time Altitude Azimuth Distance (km) Brightness Sun altitude
Rises 21:43:12 0° 332° (NNW) 3,244 8.2 -23.4°
Reaches altitude 10° 21:45:36 10° 331° (NNW) 2,310 7.1 -23.6°
Maximum altitude 21:50:49 76° 248° (WSW) 788 3.4 -23.8°
Enters shadow 21:51:31 64° 189° (S) 839 3.4 -23.8°
